SCP
0 0 0 0 0 0 0 1 1 0 0 0 0 -0 -0 -0 -0 -0 -0 -0 -0 0 0 0 0 0 0 0 0 0 0 0
0 0 0 0 0 0 0 0 1 2 0 0 0 0 0 -0 -0 -0 0 0 0 0 0 0 0 0 0 0 0 0 0 0
0 0 0 -0 0 0 0 1 0 2 4 1 1 0 0 0 0 0 0 0 0 0 0 0 0 0 0 0 0 0 0 0
0 0 0 0 0 0 0 0 1 2 5 8 4 2 1 1 0 0 0 0 1 0 0 0 0 0 0 0 0 0 0 0
0 0 0 0 0 0 1 0 1 2 3 4 3 2 1 1 1 2 2 1 1 1 0 0 0 0 0 0 0 0 0 0
0 0 0 0 0 0 0 1 -1 1 2 3 3 2 2 2 1 1 2 2 1 1 0 0 0 0 0 0 0 0 0 0
0 0 0 0 0 0 0 2 1 0 2 2 2 2 1 1 1 1 2 1 1 1 1 0 1 0 0 0 0 0 0 0
0 0 0 0 0 0 0 0 3 5 1 2 2 2 1 1 1 1 1 1 1 2 1 1 1 0 0 0 0 0 0 0
0 0 0 0 0 0 0 0 1 2 9 1 1 2 2 1 1 1 1 1 1 2 1 1 1 0 0 1 1 1 1 1
0 0 0 0 0 0 0 0 0 0 2 3 4 2 2 1 1 2 2 1 2 2 1 2 1 1 0 2 1 2 2 3
0 0 0 0 0 0 0 0 0 0 1 4 5 5 5 3 0 0 2 1 2 3 2 1 2 1 1 2 2 3 2 4
0 0 0 0 0 0 0 0 0 0 0 1 2 6 7 8 0 1 2 1 1 2 3 2 3 2 0 2 2 3 5 3
0 0 0 0 0 0 0 0 0 0 0 1 0 1 1 4 5 6 5 4 3 2 1 0 5 4 1 2 5 6 5 3
0 0 0 0 0 0 0 0 0 0 0 0 0 1 1 1 2 5 7 4 4 4 3 4 4 2 2 6 4 6 8 4
0 0 0 0 0 0 0 0 0 0 0 0 0 0 0 1 2 1 3 5 5 5 7 3 5 4 4 5 7 7 8 4
0 0 0 0 0 0 0 0 0 0 0 0 0 0 0 0 1 1 0 1 3 7 10 5 5 5 6 4 8 5 8 6
0 0 0 0 0 0 0 0 0 0 0 0 0 0 0 0 2 3 1 3 1 3 8 5 4 4 6 9 5 8 6 7
0 0 0 0 0 0 0 0 0 0 0 0 0 0 0 0 1 1 2 3 5 4 6 7 7 5 6 9 7 6 7 5
0 0 0 0 0 0 0 0 0 0 0 0 0 0 0 0 0 0 1 2 3 3 3 3 3 3 5 7 6 6 6 6
0 0 0 0 0 0 0 0 0 0 0 0 0 0 0 0 0 0 1 2 2 2 2 2 2 3 4 5 6 4 5 4
Wind_Speed_500mb
27 26 16 6 32 43 46 48 48 51 51 49 61 55 57 58 55 51 49 35 29 31 26 32 33 32 31 30 32 35 30 23
33 31 17 15 19 44 45 45 47 53 50 49 43 49 47 43 48 51 39 43 37 30 28 23 28 26 27 24 22 23 25 28
39 32 19 16 19 26 49 40 48 50 57 50 48 51 47 45 42 47 46 38 39 36 31 28 27 21 26 21 25 29 29 31
31 28 30 11 17 23 43 57 51 54 57 49 61 53 50 48 47 44 53 44 43 38 36 35 32 28 26 27 27 29 30 30
23 19 14 12 12 23 35 40 50 59 69 64 50 50 52 52 49 51 56 55 51 47 35 35 30 28 38 39 37 33 32 31
29 17 12 9 8 22 36 30 37 45 60 67 64 62 58 48 49 51 62 61 48 46 40 36 30 32 28 28 29 29 29 30
31 21 9 5 10 9 9 34 52 38 37 56 68 62 63 62 54 54 61 59 55 51 48 41 46 38 44 38 24 30 30 33
31 19 12 2 7 8 8 18 42 50 32 34 55 53 62 65 62 63 68 68 56 53 55 48 44 46 48 29 32 33 38 33
33 21 16 6 4 11 7 8 22 45 85 75 40 52 51 62 69 67 72 71 63 65 51 50 52 51 39 42 34 33 45 33
30 29 24 12 23 25 13 14 16 25 47 98 95 72 70 53 58 59 70 70 72 71 69 65 72 72 68 58 58 50 60 44
27 28 25 15 14 22 20 22 21 21 30 44 51 83 90 79 86 87 80 73 71 76 74 68 67 75 62 55 63 67 70 47
25 24 24 19 14 9 11 21 24 14 22 22 38 42 74 102 103 84 84 86 82 81 84 87 62 108 104 68 70 73 65 50
15 12 9 7 7 9 8 12 16 18 22 29 31 47 45 53 59 56 56 60 60 85 75 55 89 105 89 71 66 72 53 54
10 6 9 10 12 11 12 12 14 23 22 21 26 37 44 44 45 48 53 53 66 77 67 89 93 111 105 76 72 72 71 51
15 13 15 16 17 20 20 17 18 20 22 28 31 36 37 44 45 50 45 46 49 51 66 81 96 91 80 69 69 71 64 58
16 17 18 22 24 24 23 25 28 26 23 27 33 41 34 39 40 38 37 47 48 39 68 71 74 76 68 62 58 60 62 63
20 25 25 25 26 28 31 31 30 30 31 30 33 36 43 47 48 50 39 43 56 63 48 63 64 69 64 67 58 61 59 56
31 37 39 38 35 34 32 34 36 35 35 36 36 38 38 41 48 55 55 56 53 53 58 75 84 73 63 62 62 60 59 54
38 41 37 41 43 43 42 42 41 41 40 38 40 41 42 44 48 50 55 58 61 59 54 70 66 55 61 64 62 52 55 50
37 38 39 40 44 50 53 51 51 50 47 45 43 44 44 48 50 54 59 55 56 55 53 61 62 61 59 64 62 48 46 44
Wind_Direction_500mb
306 312 317 242 210 202 199 196 196 191 190 202 205 205 207 211 210 212 213 213 214 225 226 247 244 250 259 263 265 262 264 261
295 295 310 247 241 213 206 198 199 196 196 203 202 199 206 206 213 215 211 206 216 216 219 238 262 247 264 238 259 276 264 251
285 276 268 245 231 217 215 209 206 206 194 205 200 203 206 205 214 217 209 214 216 228 218 222 233 242 247 251 241 240 256 262
277 266 262 240 218 207 210 219 218 213 205 199 204 202 207 205 208 216 228 215 224 229 236 244 235 233 237 243 251 247 260 254
263 255 258 236 228 198 206 211 222 227 220 201 209 202 197 211 206 212 230 226 217 236 235 247 240 237 239 236 241 247 251 255
243 232 236 245 254 217 207 198 219 244 228 216 209 208 211 212 216 216 230 240 238 244 245 242 236 230 243 249 251 257 251 257
228 219 211 291 281 233 203 190 231 249 240 234 229 233 235 230 221 226 241 243 242 245 246 245 259 256 260 252 249 260 258 253
221 215 221 168 302 287 242 219 218 222 249 246 233 236 234 227 232 234 243 245 247 243 248 246 251 255 245 252 259 259 260 259
231 235 241 186 233 283 230 237 221 220 225 246 233 227 234 244 241 243 250 254 252 247 266 254 255 254 247 251 267 313 264 266
233 232 232 233 256 268 277 267 243 203 227 223 236 243 244 261 266 250 244 241 245 249 237 252 255 264 261 244 261 259 273 266
235 230 222 221 216 246 250 247 257 224 209 213 229 238 234 243 262 259 250 253 240 251 247 253 260 265 253 244 251 253 264 251
227 217 218 216 220 223 256 263 253 260 247 230 217 237 232 230 241 256 256 253 247 238 245 253 243 249 261 251 252 257 265 243
213 202 207 233 235 247 251 260 271 258 237 236 219 235 233 236 236 239 238 244 240 251 247 263 251 248 251 251 245 261 249 251
202 240 273 277 277 269 263 277 283 288 274 254 247 237 228 237 237 241 241 256 248 245 248 249 253 248 248 243 250 253 262 240
213 255 279 293 289 278 283 288 291 286 288 278 274 262 258 258 248 236 236 241 240 249 254 253 247 237 242 243 246 254 251 249
238 267 277 293 296 298 281 283 290 292 291 288 284 275 269 263 268 263 250 244 242 242 248 251 240 234 244 250 238 255 240 248
263 275 280 282 285 289 290 286 283 285 288 287 280 276 271 264 257 251 255 259 238 231 245 256 249 248 252 249 244 235 233 237
268 271 274 280 282 281 279 278 281 279 281 284 286 283 276 268 267 262 260 253 251 252 236 246 250 254 248 240 237 225 232 230
291 282 276 274 276 279 278 276 272 274 276 277 283 285 279 269 263 266 264 262 255 252 251 245 252 243 235 231 230 221 226 224
300 296 292 288 283 281 278 277 276 271 269 272 273 277 278 272 265 258 257 259 262 264 254 253 236 241 234 230 226 207 216 215
Wind_Speed_850mb
27 26 16 6 32 43 46 48 48 51 51 49 61 55 57 58 55 51 49 35 29 31 26 32 33 32 31 30 32 35 30 23
33 31 17 15 19 44 45 45 47 53 50 49 43 49 47 43 48 51 39 43 37 30 28 23 28 26 27 24 22 23 25 28
39 32 19 16 19 26 49 40 48 50 57 50 48 51 47 45 42 47 46 38 39 36 31 28 27 21 26 21 25 29 29 31
31 28 30 11 17 23 43 57 51 54 57 49 61 53 50 48 47 44 53 44 43 38 36 35 32 28 26 27 27 29 30 30
23 19 14 12 12 23 35 40 50 59 69 64 50 50 52 52 49 51 56 55 51 47 35 35 30 28 38 39 37 33 32 31
29 17 12 9 8 22 36 30 37 45 60 67 64 62 58 48 49 51 62 61 48 46 40 36 30 32 28 28 29 29 29 30
31 21 9 5 10 9 9 34 52 38 37 56 68 62 63 62 54 54 61 59 55 51 48 41 46 38 44 38 24 30 30 33
31 19 12 2 7 8 8 18 42 50 32 34 55 53 62 65 62 63 68 68 56 53 55 48 44 46 48 29 32 33 38 33
33 21 16 6 4 11 7 8 22 45 85 75 40 52 51 62 69 67 72 71 63 65 51 50 52 51 39 42 34 33 45 33
30 29 24 12 23 25 13 14 16 25 47 98 95 72 70 53 58 59 70 70 72 71 69 65 72 72 68 58 58 50 60 44
27 28 25 15 14 22 20 22 21 21 30 44 51 83 90 79 86 87 80 73 71 76 74 68 67 75 62 55 63 67 70 47
25 24 24 19 14 9 11 21 24 14 22 22 38 42 74 102 103 84 84 86 82 81 84 87 62 108 104 68 70 73 65 50
15 12 9 7 7 9 8 12 16 18 22 29 31 47 45 53 59 56 56 60 60 85 75 55 89 105 89 71 66 72 53 54
10 6 9 10 12 11 12 12 14 23 22 21 26 37 44 44 45 48 53 53 66 77 67 89 93 111 105 76 72 72 71 51
15 13 15 16 17 20 20 17 18 20 22 28 31 36 37 44 45 50 45 46 49 51 66 81 96 91 80 69 69 71 64 58
16 17 18 22 24 24 23 25 28 26 23 27 33 41 34 39 40 38 37 47 48 39 68 71 74 76 68 62 58 60 62 63
20 25 25 25 26 28 31 31 30 30 31 30 33 36 43 47 48 50 39 43 56 63 48 63 64 69 64 67 58 61 59 56
31 37 39 38 35 34 32 34 36 35 35 36 36 38 38 41 48 55 55 56 53 53 58 75 84 73 63 62 62 60 59 54
38 41 37 41 43 43 42 42 41 41 40 38 40 41 42 44 48 50 55 58 61 59 54 70 66 55 61 64 62 52 55 50
37 38 39 40 44 50 53 51 51 50 47 45 43 44 44 48 50 54 59 55 56 55 53 61 62 61 59 64 62 48 46 44
Wind_Direction_850mb
306 312 317 242 210 202 199 196 196 191 190 202 205 205 207 211 210 212 213 213 214 225 226 247 244 250 259 263 265 262 264 261
295 295 310 247 241 213 206 198 199 196 196 203 202 199 206 206 213 215 211 206 216 216 219 238 262 247 264 238 259 276 264 251
285 276 268 245 231 217 215 209 206 206 194 205 200 203 206 205 214 217 209 214 216 228 218 222 233 242 247 251 241 240 256 262
277 266 262 240 218 207 210 219 218 213 205 199 204 202 207 205 208 216 228 215 224 229 236 244 235 233 237 243 251 247 260 254
263 255 258 236 228 198 206 211 222 227 220 201 209 202 197 211 206 212 230 226 217 236 235 247 240 237 239 236 241 247 251 255
243 232 236 245 254 217 207 198 219 244 228 216 209 208 211 212 216 216 230 240 238 244 245 242 236 230 243 249 251 257 251 257
228 219 211 291 281 233 203 190 231 249 240 234 229 233 235 230 221 226 241 243 242 245 246 245 259 256 260 252 249 260 258 253
221 215 221 168 302 287 242 219 218 222 249 246 233 236 234 227 232 234 243 245 247 243 248 246 251 255 245 252 259 259 260 259
231 235 241 186 233 283 230 237 221 220 225 246 233 227 234 244 241 243 250 254 252 247 266 254 255 254 247 251 267 313 264 266
233 232 232 233 256 268 277 267 243 203 227 223 236 243 244 261 266 250 244 241 245 249 237 252 255 264 261 244 261 259 273 266
235 230 222 221 216 246 250 247 257 224 209 213 229 238 234 243 262 259 250 253 240 251 247 253 260 265 253 244 251 253 264 251
227 217 218 216 220 223 256 263 253 260 247 230 217 237 232 230 241 256 256 253 247 238 245 253 243 249 261 251 252 257 265 243
213 202 207 233 235 247 251 260 271 258 237 236 219 235 233 236 236 239 238 244 240 251 247 263 251 248 251 251 245 261 249 251
202 240 273 277 277 269 263 277 283 288 274 254 247 237 228 237 237 241 241 256 248 245 248 249 253 248 248 243 250 253 262 240
213 255 279 293 289 278 283 288 291 286 288 278 274 262 258 258 248 236 236 241 240 249 254 253 247 237 242 243 246 254 251 249
238 267 277 293 296 298 281 283 290 292 291 288 284 275 269 263 268 263 250 244 242 242 248 251 240 234 244 250 238 255 240 248
263 275 280 282 285 289 290 286 283 285 288 287 280 276 271 264 257 251 255 259 238 231 245 256 249 248 252 249 244 235 233 237
268 271 274 280 282 281 279 278 281 279 281 284 286 283 276 268 267 262 260 253 251 252 236 246 250 254 248 240 237 225 232 230
291 282 276 274 276 279 278 276 272 274 276 277 283 285 279 269 263 266 264 262 255 252 251 245 252 243 235 231 230 221 226 224
300 296 292 288 283 281 278 277 276 271 269 272 273 277 278 272 265 258 257 259 262 264 254 253 236 241 234 230 226 207 216 215